Location: Newark
(36.8464°N, 25.6817°E)
Time: 17:26:01
(UTC+00:00)

Envisat - Pass Details

Date: 16 October 2019
Orbit: 764 x 766 km, 98.1° (Epoch: 14 November)

Event Time Altitude Azimuth Distance (km) Brightness Sun altitude
Rises 16:34:47 0° 172° (S) 3,217 6.2 -11.7°
Reaches altitude 10° 16:37:05 10° 174° (S) 2,295 5.4 -12.2°
Maximum altitude 16:42:08 71° 258° (WSW) 811 3.3 -13.2°
Drops below altitude 10° 16:47:12 10° 343° (NNW) 2,309 5.7 -14.2°
Sets 16:49:32 0° 345° (NNW) 3,239 6.4 -14.7°
